Volver al catálogo

STARLINK-31381

ActivoComunicacionesVLEO
NORAD 59469·PAYLOAD·🇺🇸 United States

Lanzado Apr 10, 2024 desde Cape Canaveral Space Force Station

Loading…

Próximos Pases (próximas 24 horas)

TLE

ActualizadoSource: CelesTrak SupGP

Época: Sep 15, 2026, 02:17 UTC

1 59469C 24068Q   26258.09562500 -.00024826  00000+0 -89906-3 0  2589
2 59469  43.0046  41.4935 0002012 271.4053 271.5327 15.27595318    19

Sigue STARLINK-31381 en tiempo real con AllMySat

Download on the App Store